Location: *
(46.4000°N, 12.6667°E)
Time: 03:24:15
(UTC+00:00)

Envisat - Pass Details

Date: 05 December 2021
Orbit: 764 x 766 km, 98.2° (Epoch: 16 January)

Event Time Altitude Azimuth Distance (km) Brightness Sun altitude
Rises 16:11:18 0° 197° (SSW) 3,220 6.9 -8.2°
Reaches altitude 10° 16:13:56 10° 210° (SSW) 2,299 6.4 -8.6°
Maximum altitude 16:18:09 26° 266° (W) 1,465 5.4 -9.2°
Drops below altitude 10° 16:22:26 10° 323° (NW) 2,313 5.7 -9.9°
Sets 16:25:06 0° 336° (NNW) 3,245 6.3 -10.3°
